User: anonymous   Login
Location: Treviso
(45.6669°N, 12.2430°E)
Time: 03:14:46
(UTC+01:00)
Language:

AO-92 - Orbit

View from above orbital plane
View from above orbital plane
View from above satellite
View from above satellite

Ground track
Ground track

The orbit data is extracted from the following two-line orbital elements,

1 43137U 18004AC  21057.64375119  .00002254  00000-0  93593-4 0  9998
2 43137  97.4177 132.7840 0007560 235.0024 125.0504 15.24848468173765
Epoch (UTC): 26 February 2021 15:27:00
Eccentricity: 0.0007560
inclination: 97.4177°
perigee height: 486 km
apogee height: 496 km
right ascension of ascending node: 132.7840°
argument of perigee: 235.0024°
revolutions per day: 15.24848468
mean anomaly at epoch: 125.0504°
orbit number at epoch: 17376

The dashed part of the orbit path shows where the satellite is in the earth's shadow,  

DLR